Date String (YYYY-MM-DD hh:mm:ss) UTC,Instrument flags,absolute air pressure of the measurement (hPa),sample flow rate (lpm),inlet stack bypass flow (lpm),air temperature of the measurement (°C),ambient temperature measured by the external sensor (°C),aerosol sample conditioner tube jacket temperature (°C),OPC LED temperature (°C),internal box temperature (°C),relative humidity of the measurement (%),span deviation,mass concentration of particles derived from Lorenz-Mie calculation of OPC scattering (μg/m³),mass concentration of particles derived from Lorenz-Mie calculation of OPC scattering (μg/m³),mass concentration of particles derived from Lorenz-Mie calculation of OPC scattering (μg/m³)
DateTimeUTC,F1_M11,P_M11,Q1_M11,Q2_M11,T1_M11,T2_M11,T3_M11,T4_M11,T5_M11,U1_M11,ZSPAN_M11,X0_M11,X2_M11,X1_M11
2024-05-06 10:00:00,SystemResetWarning,0809.5,5.01,000.00,025.6,024.8,000.0,034.0,027.4,017.3,0000.0,0009.47,0002.64,0000.99
2024-05-06 10:01:00,SystemResetWarning,0809.4,5.01,000.00,025.6,024.8,000.0,034.0,027.4,017.3,0000.0,0009.11,0002.48,0000.89
2024-05-06 10:02:00,SystemResetWarning,0809.3,4.98,000.00,025.6,024.8,000.0,034.0,027.4,017.4,0000.0,0008.91,0002.30,0000.80
2024-05-06 10:03:00,SystemResetWarning,0809.3,5.01,000.00,025.6,024.8,000.0,034.0,027.4,017.4,0000.0,0008.55,0002.01,0000.70
2024-05-06 10:04:00,SystemResetWarning,0809.3,5.02,000.00,025.6,024.8,000.0,033.9,027.4,017.4,0000.0,0008.52,0001.78,0000.63
2024-05-06 10:05:00,SystemResetWarning,0809.3,5.00,000.00,025.6,024.8,000.0,033.9,027.4,017.4,0000.0,0008.12,0001.60,0000.56
2024-05-06 10:06:00,SystemResetWarning,0809.3,4.98,000.00,025.6,024.8,000.0,033.9,027.4,017.5,0000.0,0007.58,0001.41,0000.48
2024-05-06 10:07:00,SystemResetWarning,0809.4,5.00,000.00,025.6,024.8,000.0,033.9,027.4,017.5,0000.0,0006.10,0001.24,0000.41
2024-05-06 10:08:00,SystemResetWarning,0809.4,5.02,000.00,025.6,024.8,000.0,033.9,027.3,017.4,0000.0,0004.65,0001.05,0000.34
2024-05-06 10:09:00,SystemResetWarning,0809.5,5.00,000.00,025.6,024.8,000.0,033.9,027.3,017.4,0000.0,0003.67,0000.82,0000.27
2024-05-06 10:10:00,SystemResetWarning,0809.6,4.99,000.00,025.6,024.8,000.0,033.9,027.4,017.4,0000.0,0002.96,0000.67,0000.23
2024-05-06 10:11:00,SystemResetWarning,0809.6,4.99,000.00,025.6,024.8,000.0,033.9,027.3,017.3,0000.0,0002.61,0000.59,0000.22
2024-05-06 10:12:00,SystemResetWarning,0809.6,5.01,000.00,025.6,024.8,000.0,033.9,027.3,017.3,0000.0,0002.46,0000.51,0000.20
2024-05-06 10:13:00,SystemResetWarning,0809.6,5.01,000.00,025.6,024.8,000.0,033.9,027.3,017.2,0000.0,0002.91,0000.45,0000.18
2024-05-06 10:14:00,SystemResetWarning,0809.6,5.00,000.00,025.6,024.8,000.0,033.9,027.3,017.1,0000.0,0003.16,0000.48,0000.16
2024-05-06 10:15:00,SystemResetWarning,0809.6,4.98,000.00,025.6,024.8,000.0,033.9,027.3,017.0,0000.0,0002.72,0000.45,0000.14
2024-05-06 10:16:00,SystemResetWarning,0809.6,5.02,000.00,025.6,024.8,000.0,033.9,027.3,017.0,0000.0,0002.79,0000.47,0000.13
2024-05-06 10:17:00,SystemResetWarning,0809.6,5.00,000.00,025.6,024.8,000.0,033.9,027.3,017.1,0000.0,0002.45,0000.47,0000.12
2024-05-06 10:18:00,SystemResetWarning,0809.5,4.99,000.00,025.6,024.7,000.0,033.9,027.3,017.2,0000.0,0002.65,0000.50,0000.11
2024-05-06 10:19:00,SystemResetWarning,0809.6,4.99,000.00,025.6,024.7,000.0,033.8,027.3,017.2,0000.0,0002.89,0000.53,0000.10
2024-05-06 10:20:00,SystemResetWarning,0809.6,5.01,000.00,025.6,024.7,000.0,033.8,027.3,017.2,0000.0,0003.01,0000.53,0000.09
2024-05-06 10:21:00,SystemResetWarning,0809.8,5.01,000.00,025.5,024.6,000.0,033.8,027.2,017.1,0000.0,0003.62,0000.51,0000.07
2024-05-06 10:22:00,SystemResetWarning,0809.7,4.99,000.00,025.5,024.6,000.0,033.8,027.2,017.1,0000.0,0003.91,0000.50,0000.07
2024-05-06 10:23:00,SystemResetWarning,0809.8,5.00,000.00,025.5,024.6,000.0,033.8,027.2,016.9,0000.0,0004.38,0000.49,0000.06
2024-05-06 10:24:00,SystemResetWarning,0809.8,5.00,000.00,025.5,024.6,000.0,033.8,027.2,016.9,0000.0,0003.92,0000.51,0000.06
2024-05-06 10:25:00,SystemResetWarning,0809.9,4.99,000.00,025.5,024.5,000.0,033.8,027.2,017.0,0000.0,0003.63,0000.45,0000.06
2024-05-06 10:26:00,SystemResetWarning,0810.0,5.00,000.00,025.5,024.5,000.0,033.8,027.2,017.0,0000.0,0003.30,0000.44,0000.05
2024-05-06 10:27:00,SystemResetWarning,0810.0,5.01,000.00,025.5,024.5,000.0,033.8,027.1,017.0,0000.0,0003.90,0000.44,0000.05
2024-05-06 10:28:00,SystemResetWarning,0809.9,5.00,000.00,025.5,024.5,000.0,033.8,027.2,016.8,0000.0,0005.46,0000.41,0000.05
2024-05-06 10:29:00,SystemResetWarning,0810.0,5.01,000.00,025.5,024.5,000.0,033.8,027.1,016.9,0000.0,0006.90,0000.39,0000.05
2024-05-06 10:30:00,SystemResetWarning,0810.1,5.00,000.00,025.4,024.4,000.0,033.8,027.1,016.9,0000.0,0007.88,0000.34,0000.04
2024-05-06 10:31:00,SystemResetWarning,0810.0,5.00,000.00,025.4,024.4,000.0,033.8,027.1,017.0,0000.0,0008.49,0000.33,0000.04
2024-05-06 10:32:00,SystemResetWarning,0810.1,4.99,000.00,025.4,024.4,000.0,033.8,027.1,017.0,0000.0,0009.03,0000.32,0000.04
2024-05-06 10:33:00,SystemResetWarning,0810.1,5.01,000.00,025.4,024.4,000.0,033.8,027.1,017.2,0000.0,0008.90,0000.31,0000.04
2024-05-06 10:34:00,SystemResetWarning,0810.1,5.01,000.00,025.4,024.4,000.0,033.7,027.1,017.3,0000.0,0008.64,0000.33,0000.04
2024-05-06 10:35:00,SystemResetWarning,0810.1,4.99,000.00,025.4,024.4,000.0,033.7,027.1,017.2,0000.0,0009.19,0000.37,0000.04
2024-05-06 10:36:00,SystemResetWarning,0810.1,4.99,000.00,025.4,024.4,000.0,033.7,027.1,017.3,0000.0,0010.36,0000.35,0000.04
2024-05-06 10:37:00,SystemResetWarning,0809.9,5.01,000.00,025.4,024.4,000.0,033.7,027.1,017.4,0000.0,0010.52,0000.34,0000.04
2024-05-06 10:38:00,SystemResetWarning,0809.9,5.01,000.00,025.4,024.4,000.0,033.7,027.1,017.2,0000.0,0010.33,0000.32,0000.04
2024-05-06 10:39:00,SystemResetWarning,0809.8,5.00,000.00,025.4,024.4,000.0,033.7,027.1,017.2,0000.0,0009.35,0000.32,0000.04
2024-05-06 10:40:00,SystemResetWarning,0809.7,4.99,000.00,025.4,024.4,000.0,033.7,027.1,017.1,0000.0,0008.59,0000.30,0000.04
2024-05-06 10:41:00,SystemResetWarning,0809.7,4.99,000.00,025.3,024.4,000.0,033.7,027.1,016.8,0000.0,0007.68,0000.32,0000.06
2024-05-06 10:42:00,SystemResetWarning,0809.7,5.00,000.00,025.3,024.4,000.0,033.7,027.1,016.6,0000.0,0007.91,0000.36,0000.06
2024-05-06 10:43:00,SystemResetWarning,0809.6,5.01,000.00,025.3,024.4,000.0,033.7,027.0,016.4,0000.0,0006.73,0000.40,0000.06
2024-05-06 10:44:00,SystemResetWarning,0809.7,5.00,000.00,025.3,024.3,000.0,033.6,027.0,016.3,0000.0,0007.28,0000.49,0000.07
2024-05-06 10:45:00,SystemResetWarning,0809.5,5.00,000.00,025.3,024.3,000.0,033.6,027.0,016.4,0000.0,0007.26,0000.48,0000.07
2024-05-06 10:46:00,SystemResetWarning,0809.6,5.00,000.00,025.3,024.3,000.0,033.6,027.0,016.1,0000.0,0006.66,0000.46,0000.07
2024-05-06 10:47:00,SystemResetWarning,0809.6,4.99,000.00,025.3,024.3,000.0,033.6,027.0,016.3,0000.0,0005.45,0000.50,0000.08
2024-05-06 10:48:00,SystemResetWarning,0809.6,4.99,000.00,025.3,024.3,000.0,033.6,027.0,016.6,0000.0,0006.03,0000.62,0000.09
2024-05-06 10:49:00,SystemResetWarning,0809.6,5.01,000.00,025.2,024.3,000.0,033.6,027.0,016.9,0000.0,0007.55,0000.74,0000.09
2024-05-06 10:50:00,SystemResetWarning,0809.7,5.01,000.00,025.2,024.2,000.0,033.6,026.9,017.0,0000.0,0007.59,0000.78,0000.10
2024-05-06 10:51:00,SystemResetWarning,0809.8,4.98,000.00,025.2,024.2,000.0,033.6,026.9,017.2,0000.0,0007.55,0000.79,0000.09
2024-05-06 10:52:00,SystemResetWarning,0809.7,4.99,000.00,025.2,024.2,000.0,033.6,026.9,017.2,0000.0,0007.43,0000.80,0000.08
2024-05-06 10:53:00,SystemResetWarning,0809.7,5.01,000.00,025.2,024.2,000.0,033.6,026.9,017.2,0000.0,0006.70,0000.80,0000.08
2024-05-06 10:54:00,SystemResetWarning,0809.7,5.00,000.00,025.2,024.2,000.0,033.5,026.9,017.2,0000.0,0006.32,0000.76,0000.08
2024-05-06 10:55:00,SystemResetWarning,0809.7,4.99,000.00,025.1,024.2,000.0,033.5,026.9,017.1,0000.0,0006.49,0000.73,0000.08
2024-05-06 10:56:00,SystemResetWarning,0809.6,5.00,000.00,025.1,024.1,000.0,033.5,026.9,017.0,0000.0,0008.21,0000.76,0000.08
2024-05-06 10:57:00,SystemResetWarning,0809.6,5.01,000.00,025.1,024.1,000.0,033.5,026.9,016.8,0000.0,0008.93,0000.79,0000.07
2024-05-06 10:58:00,SystemResetWarning,0809.7,5.00,000.00,025.1,024.1,000.0,033.5,026.8,016.6,0000.0,0009.05,0000.78,0000.07
2024-05-06 10:59:00,SystemResetWarning,0809.5,5.00,000.00,025.1,024.1,000.0,033.5,026.8,016.3,0000.0,0009.73,0000.70,0000.06
